Flag for Germany Weather past 2 weeks in Osterholz-Scharmbeck, Lower Saxony, Germany

Now
57 °F

Overcast.


Feels Like: 56 °F
Forecast: 47 / 56 °F
Wind: 5 mph from Southwest

Location: Bremen

Current Time: May 29, 2015 at 10:46:23 PM

Latest Report: May 29, 2015 at 10:00 PM


Visibility: 19 mi

Pressure: 29.67 "Hg

Humidity: 59%

Dew point: 42 °F

Location of Osterholz-ScharmbeckLocation

Historic Weather in Osterholz-Scharmbeck — Graph

°F

Osterholz-Scharmbeck temperature yesterday

Maximum temperature yesterday: 59 °F (at 12:00 PM)
Minimum temperature yesterday: 50 °F (at 10:00 PM)
Average temperature yesterday: 54 °F

Past Weeks' High & Low Weather Summary

 TemperatureHumidityPressure
High66 °F (May 24, 7:00 PM)100% (May 24, 3:00 AM)30.31 "Hg (May 24, 3:00 AM)
Low35 °F (May 16, 5:00 AM)36% (May 25, 5:00 PM)29.59 "Hg (May 18, 9:00 PM)
Average52 °F73%30.03 "Hg
* Reported May 14 9:00 PM — May 29 9:00 PM, Osterholz-Scharmbeck, Weather by CustomWeather, © 2015

Note: Actual official high and low records may vary slightly from our data, if they occured in-between our weather recording intervals... More about our weather records

Advertising

Osterholz-Scharmbeck weather history for previous 24 hours

 ConditionsComfort  
Time TempWeatherWind HumidityBarometerVisibility
9:00 PM
Fri, May 29
55 °FOvercast.1 mph76%29.67 "Hg19 mi
8:00 PM57 °FOvercast.5 mph67%29.68 "Hg19 mi
7:00 PM61 °FOvercast.7 mph49%29.69 "Hg22 mi
6:00 PM61 °FOvercast.9 mph47%29.70 "Hg19 mi
4:00 PM61 °FPartly sunny.9 mph54%29.72 "Hg19 mi
3:00 PM61 °FOvercast.7 mph50%29.74 "Hg19 mi
2:00 PM59 °FOvercast.7 mph55%29.77 "Hg19 mi
1:00 PM60 °FOvercast.7 mph52%29.80 "Hg19 mi
12:00 PM58 °FOvercast.6 mph59%29.83 "Hg19 mi
10:00 AM56 °FOvercast.5 mph61%29.86 "Hg19 mi
9:00 AM53 °FOvercast.5 mph74%29.88 "Hg19 mi
8:00 AM49 °FOvercast.2 mph80%29.89 "Hg19 mi
7:00 AM43 °FScattered clouds.2 mph87%29.89 "Hg12 mi
6:00 AM40 °FFog.1 mph97%29.90 "Hg11 mi
4:00 AM40 °FFog.1 mph97%29.91 "Hg12 mi
3:00 AM40 °FFog.1 mph97%29.93 "Hg12 mi
2:00 AM41 °FFog.1 mph99%29.93 "Hg12 mi
1:00 AM41 °FFog.1 mph98%29.93 "Hg12 mi
10:00 PM
Thu, May 28
50 °FPassing clouds.3 mph76%29.91 "Hg19 mi
Weather by CustomWeather, © 2015

See weather overviewHow to use our weather pages